Location: ???? ????????
(44.1789°N, 135.0795°E)
Time: 14:20:15
(UTC+00:00)

Daily predictions for brighter satellites

Satellite Brightness Start Highest point End
(mag) Time Altitude Azimuth Time Altitude Azimuth Time Altitude Azimuth
Lacrosse 5 rocket 2.8 12:00:01 10° WSW 12:03:22 35° NNW 12:06:41 10° NE
Cosmos 1420 Rocket 4.4 12:00:40 10° N 12:05:42 49° ENE 12:09:35 16° SE
Okean-O 2.9 12:02:34 10° S 12:06:54 68° WSW 12:11:16 10° NNW
Cosmos 1633 Rocket 4.1 12:03:22 10° NNE 12:07:15 30° ENE 12:09:56 17° SE
NOSS 3-2 (C) 4.3 12:03:22 10° WSW 12:08:14 47° NW 12:14:02 10° NNE
SL-08 R/B 4.2 12:08:01 10° N 12:12:26 49° WNW 12:16:50 10° SW
IRS-1C Rocket 4.4 12:09:40 16° SE 12:13:42 55° ENE 12:18:50 10° N
Meteor 1-13 Rocket 4.4 12:08:11 10° S 12:13:59 61° E 12:19:51 10° NNE
CZ-4B R/B 4.5 12:09:35 10° SSW 12:14:30 35° W 12:19:23 10° NNW
Ariane Rocket 3.2 12:11:38 17° SE 12:15:28 57° ENE 12:20:27 10° N
S3M 4.2 12:11:01 13° SSE 12:16:19 53° E 12:22:16 10° NNE
Spot 2 Rocket 4.3 12:12:53 10° S 12:17:46 49° W 12:22:43 10° NNW
Cosmos 1553 Rocket 4.3 12:11:30 10° SSW 12:17:49 71° W 12:24:06 10° N
Cosmos 1833 Rocket 2.7 12:12:39 10° NNW 12:18:20 80° WSW 12:22:44 17° SSE
CZ-4 R/B 4.2 12:18:19 10° WSW 12:19:14 11° W 12:20:08 10° WNW
NOSS 2-1 (C) 3.8 12:17:11 10° S 12:20:57 33° ESE 12:23:59 10° ENE
USA 238 DEB 3.5 12:18:01 10° SSW 12:23:57 63° ESE 12:30:27 10° NE
USA 238 3.5 12:18:16 10° SSW 12:24:10 62° ESE 12:30:40 10° NE
Iridium 4 Rocket 3.4 12:20:14 13° S 12:24:48 77° E 12:29:34 10° N
Cosmos 923 Rocket 4.0 12:21:35 10° S 12:26:46 68° ESE 12:31:57 10° NNE
Cosmos 1709 Rocket 4.3 12:20:38 10° N 12:26:56 58° ENE 12:31:25 20° SSE
Terra 4.2 12:26:32 10° SW 12:29:45 18° W 12:33:00 10° NW
Iridium 45 4.0 12:29:13 27° S 12:30:44 75° E 12:33:51 10° N
BREEZE-M R/B 3.4 12:27:01 10° WSW 12:30:46 88° NNW 12:38:12 10° ENE
CZ-4B R/B 3.6 12:27:48 20° SSE 12:31:22 73° ENE 12:36:36 10° N
Cosmos 2112 Rocket 4.3 12:30:52 19° S 12:34:20 46° ESE 12:39:16 10° NNE
Okean O Rocket 3.0 12:32:21 10° SSW 12:36:17 33° W 12:40:15 10° NNW
Cosmos 2082 Rocket 3.3 12:35:44 10° N 12:40:51 34° NE 12:44:32 17° ESE
USA 186 3.4 12:41:30 12° SW 12:42:22 15° W 12:43:40 10° WNW
Cosmos 2278 Rocket 2.2 12:38:21 13° S 12:43:17 60° ESE 12:48:52 10° NNE
Meteor 1-21 4.2 12:41:38 19° S 12:45:46 70° E 12:51:26 10° NNE
Cosmos 1371 Rocket 4.3 12:41:00 10° NNW 12:46:09 55° ENE 12:48:59 25° SE
CZ-4B R/B 3.1 12:44:14 23° S 12:46:33 61° WSW 12:50:32 10° NNW
Cosmos 1470 Rocket 3.9 12:43:21 10° N 12:47:44 53° ENE 12:49:42 29° SE
SWARM A 4.2 12:46:20 10° N 12:49:33 78° W 12:50:48 34° S
SL-12 R/B (Aux Motor) 4.5 12:47:58 10° WNW 12:50:37 66° SSW 12:52:45 28° SE
Meteor 1-16 Rocket 4.3 12:46:46 10° N 12:52:25 71° ENE 12:55:45 26° SSE
Cosmos 1328 Rocket 3.7 12:49:36 17° SSW 12:52:51 72° W 12:57:11 10° N
Cosmos 494 Rocket 3.9 12:49:49 18° S 12:53:44 72° ESE 12:58:59 10° NNE
Cosmos 1745 Rocket 4.2 12:47:53 10° NNW 12:54:10 71° W 12:58:53 19° S
Cosmos 1943 Rocket 2.2 12:51:10 10° SSW 12:56:50 83° WNW 13:02:30 10° NNE
GP-B 3.9 12:52:48 10° N 12:57:01 49° W 13:00:21 15° SSW
SPOT 3 Rocket 4.3 12:54:36 17° SSW 12:58:21 45° W 13:03:19 10° NNW
BREEZE-M DEB (TANK) 1.4 12:56:50 10° WNW 12:58:49 87° NNE 12:58:53 82° E
Okean 3 4.2 13:00:39 30° ESE 13:01:24 33° E 13:05:00 10° NNE
Helios 1B rocket 4.3 13:01:39 13° E 13:02:35 14° ENE 13:04:25 10° NNE
Cosmos 1174 4.1 13:08:05 40° SE 13:08:23 41° ESE 13:11:48 10° NE
Cosmos 1953 3.7 13:05:32 10° NNW 13:08:36 27° W 13:10:30 17° SW
SWAS 4.5 13:08:25 41° SSE 13:09:21 51° ESE 13:13:18 10° NE
Meteor 1-12 Rocket 4.3 13:04:54 10° N 13:10:38 71° ENE 13:13:31 31° SSE
USA 215 4.3 13:05:32 10° E 13:11:35 43° NNE 13:17:40 10° NW
Cosmos 1666 Rocket 4.5 13:10:41 10° NNW 13:14:44 41° W 13:16:59 22° SSW
Cosmos 1441 Rocket 3.5 13:15:49 37° E 13:15:49 37° E 13:18:37 10° NNE
USA 276 4.3 13:18:24 13° NE 13:18:24 13° NE 13:18:44 10° ENE
SL-8 R/B 3.5 13:15:27 10° WSW 13:20:09 80° SSE 13:24:55 10° ENE
Helios 1A 3.1 13:17:47 10° NNE 13:21:37 48° E 13:22:13 44° SE
COSMOS 2406 4.4 13:16:48 10° N 13:21:58 34° NE 13:25:15 19° ESE
Cosmos 2369 Rocket 3.8 13:22:00 17° ESE 13:22:23 17° E 13:25:49 10° ENE
ARIANE 5 R/B 4.3 13:21:00 19° E 13:22:39 23° ENE 13:26:08 10° NNE
USA 81 4.2 13:19:00 10° N 13:24:12 58° E 13:26:11 36° SE
NOSS 3-1 (C) 4.2 13:25:30 22° ESE 13:25:30 22° ESE 13:28:59 10° ENE
Cosmos 1048 Rocket 4.0 13:23:22 35° S 13:25:30 64° ESE 13:30:44 10° NNE
Cosmos 1680 Rocket 4.2 13:20:40 10° SW 13:25:42 52° WNW 13:30:48 10° NNE
NOSS 2-1 (E) 3.7 13:22:30 10° SW 13:26:30 55° NW 13:29:43 10° NNE
Cosmos 1624 Rocket 4.2 13:21:51 10° NNW 13:27:07 66° WSW 13:29:22 34° S
Cosmos 1869 Rocket 4.1 13:23:10 10° N 13:27:18 43° ENE 13:28:21 36° ESE
CZ-2C R/B 3.2 13:29:16 31° W 13:29:16 31° W 13:31:44 10° NNW
Cosmos 2074 Rocket 4.2 13:26:28 10° N 13:32:35 59° ENE 13:35:19 33° SE
SL-4 R/B 4.1 13:36:11 11° ENE 13:36:11 11° ENE 13:36:17 10° ENE
Cosmos 1515 Rocket 3.7 13:31:50 33° SSW 13:33:38 66° W 13:37:57 10° N
Cosmos 1656 Rocket 3.9 13:33:14 37° SSE 13:34:50 49° ESE 13:40:10 10° NE
Cosmos 2056 Rocket 3.9 13:31:05 10° NNW 13:36:01 51° WSW 13:37:57 33° SSW
ALOS 2 4.0 13:37:03 23° E 13:38:24 28° ENE 13:42:09 10° N
Lacrosse 5 rocket 4.5 13:39:08 10° NW 13:40:44 12° NNW 13:42:19 10° NNE
USA 59 Rocket 1.9 13:43:22 10° W 13:46:06 21° NW 13:48:30 10° N
Nadezhda 1 Rocket 4.2 13:53:08 37° SSE 13:55:21 57° E 14:01:27 10° NNE
ARIANE 6 FM1 Upper Stage 2.8 13:58:37 54° ESE 13:58:37 54° ESE 14:02:28 10° NE
Cosmos 1400 Rocket 3.4 13:57:14 10° NNW 14:00:38 38° W 14:00:57 37° WSW
BREEZE-M DEB (TANK) 4.4 13:46:18 10° W 14:02:37 60° N 14:07:16 10° E
COSMOS 2455 4.1 14:03:07 23° ESE 14:03:33 23° ESE 14:08:06 10° ENE
Spot 4 4.0 14:03:09 45° SE 14:04:27 63° ENE 14:09:14 10° N
Cosmos 1315 Rocket 4.3 14:06:35 10° NNE 14:09:44 24° ENE 14:10:09 24° E
Cosmos 967 Rocket 4.4 14:08:13 35° SSW 14:11:08 75° ESE 14:17:36 10° NE
Okean 1-7 3.3 14:11:00 46° ESE 14:11:13 47° E 14:15:18 10° NNE
PSLV R/B 4.0 14:06:58 10° NNE 14:11:32 52° E 14:12:07 48° SE
USA 290 4.3 14:14:20 10° N 14:16:43 20° ENE 14:16:49 20° ENE
ACS3 Solar Sail 3.0 14:14:07 10° NE 14:18:35 23° E 14:20:02 21° ESE
Cosmos 2184 Rocket 4.2 14:12:53 10° NNW 14:19:07 66° W 14:21:38 37° SSW
Cosmos 2154 Rocket 4.1 14:14:03 10° NNW 14:20:14 70° W 14:22:36 39° SSW
ATLAS 5 CENTAUR R/B 1.8 14:22:34 40° NNE 14:22:34 40° NNE 14:24:43 10° NNE
Cosmos 1110 Rocket 4.4 14:18:40 10° NNW 14:23:37 47° WSW 14:24:45 40° SW
Cosmos 2082 Rocket 2.9 14:19:46 10° NW 14:24:57 39° WSW 14:26:20 33° SW
Cosmos 2278 Rocket 4.2 14:23:12 10° WSW 14:27:46 24° NW 14:32:21 10° N
SL-8 Rocket 4.5 14:22:57 10° N 14:28:54 49° ENE 14:31:18 33° SE
Cosmos 1328 4.1 14:32:46 47° WNW 14:32:46 47° WNW 14:36:13 10° N
Cosmos 1452 Rocket 3.6 14:28:27 10° NNW 14:33:40 62° WSW 14:34:48 49° SSW
Meteor 2-5 Rocket 4.1 14:32:14 41° SE 14:33:49 53° E 14:39:32 10° NNE
Lacrosse 4 Rocket 3.0 14:30:10 10° N 14:33:51 29° NE 14:35:34 22° E
USA 308 3.6 14:34:27 31° NW 14:34:50 33° NNW 14:38:18 10° NE
Helios 1B rocket 3.0 14:35:31 37° W 14:35:31 37° W 14:38:25 10° NNW
Cosmos 2341 Rocket 4.2 14:36:06 10° N 14:42:15 60° ENE 14:44:34 37° SE
MetOp-A 3.7 14:44:42 50° E 14:44:55 51° ENE 14:48:35 10° N
Helios 1B 4.4 14:42:46 10° NNE 14:47:02 83° WNW 14:47:29 70° SW
Meteor 2-13 Rocket 4.5 14:46:53 44° SSE 14:48:48 67° E 14:54:52 10° NNE
USA 276 4.3 14:47:07 10° WNW 14:49:16 23° N 14:51:36 10° NE
CZ-2C R/B 2.8 14:49:12 41° SE 14:50:48 61° ENE 14:56:00 10° N
Exosat Rocket 4.3 14:47:54 32° SW 14:50:50 69° WNW 14:58:47 10° NNE
CZ-2C R/B 2.9 14:48:26 10° NNE 14:53:49 84° ESE 14:55:00 54° S
USA 215 3.1 14:51:02 32° SE 14:54:18 78° SW 15:00:52 10° NW
ARIANE 5 R/B 3.4 14:58:22 36° WSW 14:58:44 37° W 15:02:51 10° NNW
SL-8 R/B 4.5 14:58:03 10° W 15:02:41 52° N 15:07:20 10° ENE
Cosmos 2369 Rocket 2.2 15:03:43 41° SW 15:05:42 72° WNW 15:11:19 10° NNE
COSMOS 2406 3.8 15:01:02 10° NW 15:06:17 39° WSW 15:07:16 36° SW
Cosmos 1869 3.4 15:05:07 10° N 15:08:11 58° NE 15:08:11 58° NE
Cosmos 2297 3.7 15:07:20 43° SW 15:09:17 79° WNW 15:15:02 10° NNE
NOSS 3-1 (A) 2.8 15:09:16 58° SSE 15:09:44 62° ESE 15:15:03 10° NE
Cosmos 972 Rocket 4.5 15:05:09 10° NNW 15:10:17 44° W 15:11:07 41° SW
SL-4 R/B 3.0 15:09:29 27° WNW 15:10:30 34° NNW 15:13:25 10° NE
ALOS 2 3.8 15:14:26 29° WSW 15:14:40 29° W 15:18:31 10° NW
NOSS 3-1 (C) 3.7 15:12:45 26° WSW 15:15:11 48° NW 15:20:34 10° NNE
Cosmos 1733 Rocket 4.1 15:13:25 10° NNW 15:17:11 30° W 15:17:28 30° W
Cosmos 2228 Rocket 3.5 15:19:15 46° WSW 15:19:53 51° WNW 15:24:11 10° N
Cosmos 1703 Rocket 3.4 15:21:18 71° SSE 15:21:45 83° E 15:26:10 10° N
Meteor 2-15 Rocket 4.3 15:16:53 10° N 15:23:01 87° W 15:25:05 45° S
Cosmos 2366 rocket 4.1 15:19:49 10° NNW 15:26:08 69° W 15:28:15 43° SSW
Cosmos 2181 Rocket 4.0 15:28:47 43° S 15:31:04 88° W 15:37:31 10° N
Landsat 5 3.1 15:29:31 10° NNE 15:33:11 76° E 15:33:11 76° E
Cosmos 1356 Rocket 3.6 15:31:28 10° NNW 15:35:22 51° W 15:35:22 51° W
Cosmos 1821 Rocket 3.9 15:33:00 10° N 15:39:06 81° W 15:41:15 43° S
Cosmos 1315 Rocket 4.3 15:42:06 10° NW 15:44:48 23° W 15:44:48 23° W
Cosmos 407 Rocket 4.4 15:44:02 30° SE 15:45:18 35° ESE 15:49:55 10° NE
Cosmos 2218 Rocket 4.3 15:40:10 10° NNW 15:46:16 53° W 15:48:21 37° SW
COSMOS 2455 3.1 15:46:13 33° SW 15:48:56 64° NW 15:54:57 10° NNE
Cosmos 1818 4.3 15:48:08 26° WSW 15:50:51 49° NW 15:56:10 10° NNE
Cosmos 1908 Rocket 4.2 15:53:30 10° NNW 15:57:37 39° W 15:58:01 38° WSW
GEOS 3 Rocket 4.0 15:56:56 41° SW 15:57:39 44° WSW 16:02:47 10° NW
ACS3 Solar Sail 2.0 15:55:34 10° N 16:01:05 54° WNW 16:03:23 34° SW
Cosmos 1656 4.2 16:01:22 34° SSE 16:03:07 44° ESE 16:08:21 10° NE
Cosmos 1140 Rocket 3.5 16:03:57 44° SW 16:05:31 70° WNW 16:10:38 10° NNE
CENTAUR R/B 4.4 15:58:57 10° NNW 16:06:36 43° NE 16:15:22 10° ESE
Cosmos 304 Rocket 3.7 16:07:44 50° S 16:08:57 76° ESE 16:13:43 10° NNE
NOSS 2-2 (C) 4.1 16:06:41 10° NNW 16:10:23 56° NE 16:15:26 10° SE
Cosmos 1346 Rocket 2.5 16:10:13 65° SE 16:10:29 68° E 16:14:07 10° NNE
Lacrosse 4 Rocket 2.5 16:07:54 10° NW 16:10:56 29° W 16:10:56 29° W
Cosmos 1782 Rocket 3.8 16:12:34 10° NNW 16:16:48 49° W 16:17:26 45° WSW
DELTA 2 DEB (DPAF) 3.4 16:13:30 10° N 16:17:02 72° WNW 16:17:17 68° WSW
Cosmos 1763 Rocket 3.5 16:13:36 10° NNW 16:18:40 75° ENE 16:21:22 28° SSE
Cosmos 381 Rocket 4.5 16:16:49 36° SSW 16:19:39 89° ESE 16:26:06 10° NNE
Cosmos 371 Rocket 3.2 16:18:27 46° SSW 16:19:53 83° ESE 16:24:44 10° NNE
USA 276 3.8 16:19:54 10° NW 16:22:28 32° NNE 16:25:13 10° E
BREEZE-M DEB (TANK) 3.9 16:05:10 10° WNW 16:23:31 81° NNE 16:27:32 10° ESE
Meteor 2-19 Rocket 4.4 16:24:42 35° SSW 16:27:21 71° W 16:33:25 10° N
Meteor 1-21 Rocket 4.4 16:28:42 35° SSW 16:31:16 71° WNW 16:37:12 10° N
CZ-2C R/B 4.2 16:30:39 17° WSW 16:31:27 18° W 16:34:58 10° NW
USA 229 DEB 4.5 16:29:07 23° SSE 16:31:49 33° ESE 16:37:28 10° NE
Nimbus 7 Rocket 4.4 16:31:02 10° NNE 16:36:55 75° ESE 16:39:58 30° S
SJ 16-02 1.1 16:36:35 47° SSW 16:37:47 87° WNW 16:42:03 10° NNE
USA 215 4.4 16:38:21 21° WSW 16:38:21 21° WSW 16:42:43 10° WNW
IDEFIX/ARIANE 42P 2.7 16:34:22 10° NNE 16:39:35 68° ESE 16:42:08 30° S
Cosmos 2251 Rocket 4.1 16:37:06 27° SSE 16:39:42 49° ESE 16:44:51 10° NNE
MSX 3.9 16:34:49 10° NNE 16:40:35 71° ESE 16:43:41 28° S
FENGYUN 3A 4.1 16:35:40 10° NNE 16:40:56 53° E 16:43:54 25° SSE
SL-8 R/B 4.2 16:40:43 10° WNW 16:45:26 61° NNE 16:50:09 10° E
Cosmos 921 Rocket 3.9 16:44:13 29° WSW 16:45:32 36° WNW 16:49:24 10° N
Spot 1 4.3 16:42:30 10° N 16:47:24 74° WNW 16:49:23 35° SSW
SL-4 R/B 4.0 16:45:54 10° NW 16:48:21 20° N 16:50:47 10° NE
PSLV R/B 4.3 16:45:31 10° N 16:49:12 46° WNW 16:50:12 36° WSW
Cosmos 2297 Rocket 2.7 16:43:46 10° NNW 16:49:23 60° ENE 16:54:57 10° SE
Meteor 1-11 4.2 16:46:45 32° SSW 16:49:29 78° W 16:55:13 10° N
H-2A R/B 4.3 16:46:43 10° NE 16:50:10 18° E 16:53:31 10° SE
Cosmos 2369 Rocket 4.5 16:47:47 10° WNW 16:50:45 14° NW 16:53:43 10° N
Aureole 3 4.4 16:47:44 28° S 16:51:27 86° W 16:57:27 10° N
ADEOS II 4.4 16:51:47 10° NE 16:54:52 16° E 16:57:54 10° SE
Meteor 2-14 Rocket 4.4 16:51:58 26° S 16:55:40 86° E 17:01:51 10° N
Lacrosse 5 rocket 3.2 16:53:06 10° NNW 16:56:05 26° NNE 16:59:00 10° E
Cosmos 1378 Rocket 3.5 16:54:40 37° SSW 16:56:12 66° W 17:00:27 10° N
Meteor 2-1 Rocket 4.4 16:51:15 10° N 16:57:04 76° E 17:02:03 15° SSE
NPP 3.8 16:51:42 10° NNE 16:57:07 73° ESE 17:00:18 25° S
Cosmos 468 Rocket 4.0 16:53:00 10° NNW 16:58:08 81° ENE 17:02:42 13° SSE
Cosmos 1934 Rocket 4.3 16:54:24 10° NNW 17:00:32 54° W 17:04:06 25° SSW
Cosmos 1980 Rocket 4.2 16:56:53 10° SE 17:00:49 20° E 17:04:46 10° NE
Cosmos 2263 Rocket 4.4 17:03:53 10° N 17:08:31 26° NE 17:13:08 10° ESE
Cosmos 540 Rocket 4.0 17:09:32 10° NW 17:14:14 39° WSW 17:16:26 26° SSW
Cosmos 1727 Rocket 4.5 17:11:16 13° SSE 17:16:43 58° E 17:22:46 10° NNE
Cosmos 405 Rocket 2.9 17:17:21 31° W 17:17:51 33° WNW 17:20:36 10° N
ADEOS Rocket 3.1 17:11:58 10° N 17:17:59 62° WNW 17:21:35 23° SW
Cosmos 2084 Rocket 3.2 17:16:24 30° SW 17:18:17 79° NW 17:22:22 10° NE
Resurs 1-4 Rocket 3.2 17:15:37 10° NNE 17:20:32 39° E 17:25:26 10° SSE
NOSS 2-2 (E) 3.7 17:18:14 10° NW 17:22:02 77° NE 17:27:16 10° SE
Envisat 3.6 17:17:18 10° NNE 17:22:15 52° E 17:26:29 14° S
Okean 2 Rocket 3.0 17:18:50 10° N 17:23:12 78° W 17:26:20 19° S
Cosmos 1782 3.6 17:20:29 10° N 17:23:51 43° ENE 17:27:11 10° SSE
Cosmos 1674 Rocket 4.0 17:23:02 26° SW 17:25:16 49° WNW 17:29:34 10° N
Cosmos 1437 Rocket 4.3 17:23:09 10° N 17:26:13 30° ENE 17:29:15 10° SE
Meteor 2-21 4.5 17:23:44 20° SSW 17:28:11 73° W 17:34:23 10° N
MOS 1-B Rocket 4.0 17:22:33 10° N 17:28:25 62° WNW 17:32:17 20° SW
Cosmos 841 Rocket 3.6 17:24:55 10° NNW 17:30:08 76° ENE 17:35:17 10° SSE
NOAA 11 4.2 17:24:45 10° NNE 17:30:17 86° WNW 17:34:24 18° SSW
Cosmos 2151 Rocket 4.0 17:29:02 10° NNW 17:33:18 44° W 17:35:53 21° SSW
Cosmos 2058 4.4 17:30:24 10° SSE 17:33:49 30° E 17:37:16 10° NNE
Cosmos 2100 Rocket 4.4 17:31:32 10° N 17:37:46 63° E 17:43:52 10° SSE
SL-24 DEB 4.1 17:36:21 17° S 17:39:38 65° W 17:44:03 10° N
ATLAS 3B R/B 3.1 17:34:20 17° SSW 17:40:24 73° ESE 17:48:16 10° NE
DMSP B5D2-2 4.1 17:37:02 10° SSE 17:42:17 85° WSW 17:47:35 10° NNW
Dummy Sat-01 4.5 17:42:59 10° N 17:46:38 77° W 17:49:41 14° S
Okean 1 Rocket 3.4 17:42:56 10° NNW 17:47:04 46° W 17:50:12 16° SSW
Cosmos 1954 Rocket 4.3 17:43:37 18° SW 17:47:16 54° WNW 17:52:19 10° NNE
Cosmos 1025 Rocket 4.2 17:48:02 17° SW 17:50:33 29° WNW 17:54:24 10° NNW
Cosmos 2221 Rocket 4.0 17:47:51 18° SW 17:50:56 48° WNW 17:55:20 10° N
NOSS 2-2 (D) 4.1 17:48:44 10° NW 17:52:30 39° WSW 17:57:34 10° S
Gbstr 26 Del rocket 4.4 17:47:25 13° WSW 17:53:32 82° NNW 18:01:20 10° ENE
USA 276 1.9 17:52:26 10° WNW 17:55:21 59° SSW 17:58:22 10° SE
Cosmos 332 Rocket 4.2 17:51:59 17° SW 17:55:26 48° WNW 18:00:03 10° N
Cosmos 1697 Rocket 2.8 17:52:36 16° SW 17:57:08 69° WNW 18:02:45 10° NNE
CENTAUR R/B 3.4 17:49:26 10° NW 17:57:53 68° WSW 18:07:20 10° SSE
Cosmos 2292 Rocket 3.5 17:57:27 19° SW 17:59:26 41° WNW 18:02:57 10° N
ALOS 2.3 17:55:00 10° NNE 17:59:34 80° ESE 18:04:06 10° S
Cosmos 1975 Rocket 3.2 17:57:31 10° S 18:01:47 74° E 18:06:04 10° NNE
Cosmos 1000 Rocket 4.5 17:56:36 10° S 18:02:45 81° W 18:08:59 10° N
Cosmos 2227 Rocket 2.2 17:57:58 10° NNW 18:03:39 88° WSW 18:09:17 10° SSE
Sich 1 Rocket 4.3 18:01:55 10° NNW 18:06:04 36° W 18:09:51 12° SSW
CZ-2D R/B 2.2 18:01:59 10° NNE 18:07:27 90° ESE 18:12:49 10° SSW
Atlas 2A Centaur Rocket 4.3 18:07:27 10° SSE 18:08:25 10° SSE 18:09:34 10° SE
Cosmos 1802 Rocket 4.3 18:02:51 10° N 18:09:15 75° E 18:15:40 10° SSE
MOZ.5/SAFIR/RUBIN 5/SL-8 4.3 18:06:33 10° SSW 18:10:51 40° W 18:15:13 10° NNW
SJ 16-02 3.7 18:16:04 10° WNW 18:16:33 10° NW 18:17:02 10° NW
IDEFIX/ARIANE 42P 4.4 18:15:01 10° NNW 18:18:28 18° WNW 18:21:54 10° WSW
USA 229 DEB 4.0 18:16:32 10° WSW 18:22:21 51° NW 18:28:56 10° NNE
USA 229 4.0 18:16:33 10° WSW 18:22:23 52° NW 18:28:59 10° NNE
SL-4 R/B 3.1 18:23:16 10° NW 18:26:11 35° NNE 18:29:05 10° E
SL-8 R/B 3.8 18:23:07 10° WNW 18:27:43 51° SSW 18:32:19 10° SE
SeaSat 1 2.5 18:24:18 10° SSE 18:29:11 89° SW 18:34:08 10° NNW
H-2A R/B 2.2 18:24:45 10° N 18:29:53 60° WNW 18:34:51 10° SSW
Cosmos 158 Rocket 4.2 18:26:56 10° NNW 18:31:49 70° ENE 18:36:38 10° SSE
USA 281 4.4 18:25:53 10° SE 18:32:08 49° ENE 18:38:24 10° NNW
Cosmos 2219 4.1 18:26:38 10° NNW 18:32:12 55° ENE 18:37:46 10° SE
Lacrosse 5 rocket 1.2 18:29:28 10° WNW 18:32:40 39° SW 18:35:46 10° SSE
Cosmos 2297 Rocket 3.5 18:28:46 10° NW 18:32:54 21° W 18:37:01 10° SSW
Aureole 3 Rocket 3.9 18:29:54 10° N 18:34:29 50° ENE 18:37:58 10° SSE
ADEOS II 2.1 18:29:41 10° N 18:34:54 71° WNW 18:40:05 10° SSW
Cosmos 1455 Rocket 4.1 18:31:31 10° NNW 18:35:13 28° W 18:38:55 10° SSW
ARGOS 3.4 18:30:34 10° NNE 18:35:58 72° ESE 18:41:21 10° S
Cosmos 1864 Rocket 4.5 18:30:11 10° NNW 18:36:16 68° W 18:42:21 10° S
Cosmos 1933 3.5 18:32:38 10° N 18:36:26 69° E 18:40:12 10° SSE
H-2A R/B 2.4 18:34:12 10° S 18:38:01 58° W 18:41:54 10° NNW
